TimeCDT,TemperatureF,Dew PointF,Humidity,Sea Level PressureIn,VisibilityMPH,Wind Direction,Wind SpeedMPH,Gust SpeedMPH,PrecipitationIn,Events,Conditions,WindDirDegrees,DateUTC
12:53 AM,52.0,-9999,N/A,30.09,10.0,North,24.2,31.1,N/A,,Clear,350,2012-10-04 05:53:00
1:53 AM,51.1,-9999,N/A,30.12,10.0,North,20.7,32.2,N/A,,Mostly Cloudy,350,2012-10-04 06:53:00
2:53 AM,48.9,-9999,N/A,30.16,10.0,NNW,12.7,-,N/A,,Overcast,330,2012-10-04 07:53:00
3:53 AM,48.0,-9999,N/A,30.18,10.0,NNW,17.3,26.5,N/A,,Overcast,330,2012-10-04 08:53:00
4:53 AM,44.1,-9999,N/A,30.21,10.0,NW,8.1,-,N/A,,Clear,320,2012-10-04 09:53:00
5:53 AM,43.0,-9999,N/A,30.24,10.0,NNW,10.4,-,N/A,,Mostly Cloudy,330,2012-10-04 10:53:00
6:53 AM,44.1,-9999,N/A,30.26,10.0,NNW,12.7,-,N/A,,Overcast,330,2012-10-04 11:53:00
7:53 AM,43.0,-9999,N/A,30.28,10.0,NNW,15.0,-,N/A,,Scattered Clouds,340,2012-10-04 12:53:00
8:53 AM,45.0,33.1,63,30.31,10.0,NNW,10.4,-,N/A,,Clear,340,2012-10-04 13:53:00
9:53 AM,46.9,30.9,54,30.34,10.0,North,16.1,26.5,N/A,,Clear,360,2012-10-04 14:53:00
10:53 AM,48.9,30.9,50,30.36,10.0,North,19.6,26.5,N/A,,Clear,350,2012-10-04 15:53:00
11:53 AM,52.0,30.9,45,30.35,10.0,North,18.4,-,N/A,,Clear,350,2012-10-04 16:53:00
12:53 PM,54.0,30.0,40,30.35,10.0,NNE,12.7,23.0,N/A,,Clear,20,2012-10-04 17:53:00
1:53 PM,57.0,30.0,36,30.31,10.0,North,11.5,-,N/A,,Clear,10,2012-10-04 18:53:00
2:53 PM,57.0,28.9,34,30.28,10.0,North,9.2,-,N/A,,Clear,10,2012-10-04 19:53:00
3:53 PM,57.9,28.9,33,30.27,10.0,NNE,12.7,18.4,N/A,,Clear,20,2012-10-04 20:53:00
4:53 PM,57.9,28.0,32,30.27,10.0,NE,12.7,17.3,N/A,,Clear,50,2012-10-04 21:53:00
5:53 PM,57.9,28.0,32,30.27,10.0,NE,9.2,-,N/A,,Clear,50,2012-10-04 22:53:00
6:53 PM,54.0,27.0,35,30.27,10.0,NNE,10.4,-,N/A,,Clear,30,2012-10-04 23:53:00
7:53 PM,48.0,28.0,46,30.29,10.0,NE,6.9,-,N/A,,Clear,40,2012-10-05 00:53:00
8:53 PM,50.0,30.0,46,30.31,10.0,NNE,5.8,-,N/A,,Partly Cloudy,20,2012-10-05 01:53:00
9:53 PM,50.0,30.0,46,30.30,10.0,NE,6.9,-,N/A,,Clear,50,2012-10-05 02:53:00
11:53 PM,42.1,30.0,62,30.34,10.0,NNE,8.1,-,N/A,,Clear,30,2012-10-05 04:53:00